www.pogodaiklimat.ru

Погода и климат >> Архив погоды >> Испания >> Херес-де-ла-Фронтера


ПОГОДА в Херес-де-ла-Фронтере

  • Прогноз погоды в Херес-де-ла-Фронтере
  • Монитор погоды в Херес-де-ла-Фронтере

АРХИВ ПОГОДЫ в Херес-де-ла-Фронтере

Время (UTC), дата Ветер
(напр.,м/с)
 
Видим.   Явления Облачность Т
(С)
Тd
(С)
f
(%)
Тe
(С)
Тes
(С)
Комфортность P
(гПа)
Po
(гПа)
Тmin
(С)
Tmax
(С)
R
(мм)
R24
(мм)
S
(см)
13 12.08 СЗ 5 н/о н/о +32.0 +5.9 20 +30 +30 жарко 1015.9 1012.8
14 12.08 СЗ 6 н/о н/о +32.7 +1.2 13 +30 +30 жарко 1015.2 1012.1
15 12.08 СЗ 8 н/о н/о +33.4 +3.9 16 +31 +31 жарко 1014.3 1011.2
16 12.08 СЗ 5 н/о н/о +33.5 +5.9 18 +31 +31 жарко 1013.8 1010.7
17 12.08 З 7 н/о н/о +31.2 +7.2 22 +30 +30 жарко 1013.7 1010.6
18 12.08 З 8 40 км 1/0
[Cs]
+27.6 +10.9 35 +28 +28 жарко 1013.7 1010.6 +34.2
19 12.08 З 7 н/о н/о +24.1 +11.1 44 +25 +25 комфорт 1014.5 1011.3
20 12.08 З 3 н/о н/о +23.1 +11.2 47 +25 +25 комфорт 1014.9 1011.7
21 12.08 З 2 40 км 4/0
[Ci sp]
+22.1 +11.2 50 +24 +24 комфорт 1015.7 1012.5
22 12.08 В 3 н/о н/о +19.2 +11.0 59 +21 +21 комфорт 1016.0 1012.8
23 12.08 СВ 2 н/о н/о +17.6 +10.6 64 +18 +18 1015.8 1012.6
00 13.08 СВ 1 н/о н/о +17.8 +10.5 62 +19 +19 1015.7 1012.5
01 13.08 С 1 н/о н/о +16.5 +10.6 68 +17 +17 1015.5 1012.2
02 13.08 СВ 1 н/о н/о +14.6 +9.9 73 +15 +15 1015.4 1012.1
03 13.08 штиль 0 н/о н/о +13.8 +9.6 76 +13 +13 1015.0 1011.7
04 13.08 С 2 н/о н/о +12.9 +8.9 77 +13 +13 1015.1 1011.8
05 13.08 В 1 н/о н/о +12.2 +8.7 79 +12 +12 1015.2 1011.9
06 13.08 В 1 50 км ясно +12.4 +8.3 76 +12 +13 1015.9 1012.6 +12.0
07 13.08 С 1 н/о н/о +16.9 +9.6 62 +18 +18 1016.4 1013.1
08 13.08 В 1 н/о н/о +21.8 +10.9 50 +24 +24 комфорт 1016.6 1013.4
09 13.08 Ю 1 50 км ясно +26.7 +12.7 42 +28 +39 жарко 1016.7 1013.6
10 13.08 СЗ 1 н/о н/о +29.2 +13.3 38 +31 +31 жарко 1017.0 1013.9
11 13.08 СЗ 3 н/о н/о +32.2 +11.0 27 +32 +32 жарко 1017.0 1013.9
12 13.08 СЗ 2 50 км 4/0
[Ci fib]
+33.3 +12.6 28 +34 +52 опасность
солнечного
удара
1016.5 1013.4
13 13.08 В 3 н/о н/о +35.3 +12.5 25 +35 +35 очень
жарко
1015.9 1012.8
14 13.08 СЗ 3 н/о н/о +35.3 +9.3 20 +34 +34 очень
жарко
1015.4 1012.3
15 13.08 З 5 40 км 3/0
[Ci fib]
+36.0 +8.6 19 +34 +40 очень
жарко
1014.8 1011.8
16 13.08 З 5 н/о н/о +34.8 +10.6 23 +34 +34 очень
жарко
1014.8 1011.7
17 13.08 З 4 н/о н/о +34.8 +10.6 23 +34 +34 очень
жарко
1014.8 1011.7
18 13.08 ЮЗ 6 25 км 1/0
[Ci fib]
+31.6 +14.3 35 +33 +34 жарко 1015.1 1012.0 +36.6
19 13.08 ЮЗ 4 н/о н/о +29.4 +12.8 36 +31 +31 жарко 1015.4 1012.3
20 13.08 ЮЗ 2 н/о н/о +26.1 +13.6 46 +28 +28 жарко 1016.1 1013.0
21 13.08 ЮЗ 2 25 км ясно +23.4 +13.3 53 +27 +27 душно 1017.1 1013.9
22 13.08 Ю 2 н/о н/о +22.6 +14.5 60 +26 +26 жарко 1017.5 1014.3
23 13.08 штиль 0 н/о н/о +20.9 +15.0 69 +24 +24 комфорт 1017.4 1014.2
00 14.08 В 2 н/о н/о +19.4 +14.9 75 +22 +22 комфорт 1017.4 1014.2
01 14.08 С 2 н/о н/о +19.1 +14.1 73 +21 +21 комфорт 1017.2 1014.0
02 14.08 С 2 н/о н/о +18.6 +13.5 72 +20 +20 1017.2 1014.0
03 14.08 СВ 1 н/о н/о +18.6 +13.7 73 +20 +20 1016.9 1013.7
04 14.08 штиль 0 н/о н/о +18.0 +13.5 75 +18 +18 1017.1 1013.9
05 14.08 штиль 0 н/о н/о +18.1 +13.8 76 +18 +18 1017.1 1013.9
06 14.08 СЗ 1 40 км ясно +17.9 +14.1 78 +19 +19 1017.5 1014.3 +17.4
07 14.08 штиль 0 н/о н/о +22.1 +16.6 71 +26 +26 душно 1017.8 1014.6
08 14.08 С 2 н/о н/о +27.1 +19.1 62 +33 +33 очень
душно
1018.1 1015.0
09 14.08 Ю 1 н/о н/о +29.3 +20.1 58 +36 +36 очень
душно
1018.0 1014.9
10 14.08 ЮЗ 2 н/о н/о +31.5 +20.1 51 +38 +38 очень
душно
1018.0 1014.9
11 14.08 ЮЗ 2 н/о н/о +32.6 +20.2 48 +39 +39 очень
душно
1017.8 1014.7
12 14.08 Ю 2 30 км 1/1 600 м
[Cu hum]
+34.5 +19.6 42 +40 +58 опасность
солнечного
удара
1017.3 1014.2
13 14.08 СВ 2 н/о н/о +35.6 +19.6 39 +41 +41 опасность
перегрева
1016.5 1013.5
14 14.08 СЗ 3 н/о н/о +36.7 +18.4 34 +41 +41 опасность
перегрева
1015.9 1012.9
15 14.08 З 6 30 км 1/1 600 м
[Cu hum]
+36.6 +20.6 39 +43 +47 опасность
перегрева
1015.5 1012.5
16 14.08 З 5 н/о н/о +34.9 +19.4 40 +40 +40 очень
душно
1015.3 1012.3
17 14.08 З 5 н/о н/о +34.2 +19.5 42 +40 +40 очень
душно
1015.2 1012.2
18 14.08 З 5 30 км ясно +32.0 +19.9 49 +38 +39 очень
душно
1015.2 1012.1 +37.5
19 14.08 ЮЗ 5 н/о н/о +29.2 +20.2 58 +36 +36 очень
душно
1015.6 1012.5
20 14.08 З 4 н/о н/о +26.7 +20.3 68 +33 +33 очень
душно
1016.4 1013.3
21 14.08 ЮЗ 3 15 км ясно +24.8 +19.8 74 +30 +30 душно 1017.2 1014.0
22 14.08 Ю 2 н/о н/о +23.2 +19.4 79 +30 +30 очень
душно
1017.4 1014.2
23 14.08 Ю 2 н/о н/о +22.8 +19.4 81 +29 +29 очень
душно
1017.2 1014.0
00 15.08 ЮВ 2 н/о н/о +22.3 +19.3 83 +28 +28 душно 1016.9 1013.7
01 15.08 Ю 1 н/о н/о +21.1 +18.8 87 +25 +25 комфорт 1016.7 1013.5
02 15.08 В 1 н/о н/о +19.4 +17.2 87 +23 +23 комфорт 1016.3 1013.1
03 15.08 В 1 н/о н/о +18.9 +16.8 88 +21 +21 комфорт 1016.1 1012.9
04 15.08 СВ 1 н/о н/о +19.1 +17.4 90 +22 +22 комфорт 1015.9 1012.7
05 15.08 С 3 н/о н/о +18.4 +16.7 90 +19 +19 1016.3 1013.1
06 15.08 С 2 50 км ясно +19.2 +17.3 89 +22 +22 комфорт 1016.8 1013.6 +18.4
07 15.08 С 1 н/о н/о +22.9 +19.5 81 +29 +29 очень
душно
1016.9 1013.7
08 15.08 С 2 н/о н/о +26.8 +19.6 65 +33 +33 очень
душно
1017.0 1013.9
09 15.08 С 2 30 км ясно +29.0 +19.8 58 +35 +44 очень
душно
1017.0 1013.9
10 15.08 СЗ 2 н/о н/о +32.0 +19.8 49 +38 +38 очень
душно
1017.2 1014.1
11 15.08 З 2 н/о н/о +34.3 +18.5 39 +39 +39 очень
душно
1016.7 1013.6
12 15.08 ЮВ 2 н/о н/о +36.0 +17.8 34 +39 +39 очень
душно
1016.0 1013.0
13 15.08 ЮВ 2 н/о н/о +37.0 +18.5 34 +41 +41 опасность
перегрева
1015.6 1012.6
14 15.08 ЮВ 3 н/о н/о +38.4 +17.1 29 +41 +41 опасность
перегрева
1015.1 1012.1
15 15.08 З 5 н/о н/о +37.4 +18.8 34 +42 +42 опасность
перегрева
1014.8 1011.8
16 15.08 З 5 н/о н/о +37.4 +17.4 31 +40 +40 очень
душно
1014.6 1011.6
17 15.08 З 5 н/о н/о +36.1 +16.8 32 +39 +39 очень
душно
1014.6 1011.6
18 15.08 З 4 40 км н/о +34.7 +16.5 34 +37 +37 очень
душно
1014.8 1011.8 +38.8
19 15.08 ЮЗ 5 н/о н/о +31.3 +17.2 43 +35 +35 очень
душно
1015.4 1012.3
20 15.08 ЮЗ 3 н/о н/о +28.0 +17.2 52 +32 +32 душно 1015.9 1012.8
21 15.08 Ю 3 30 км ясно +25.2 +18.4 66 +30 +30 душно 1016.5 1013.3
22 15.08 Ю 3 н/о н/о +24.4 +18.3 69 +29 +29 душно 1016.6 1013.4
23 15.08 Ю 2 н/о н/о +23.1 +18.0 73 +29 +29 очень
душно
1016.8 1013.6
00 16.08 штиль 0 н/о н/о +21.6 +17.3 77 +26 +26 душно 1016.7 1013.5
01 16.08 ЮВ 1 н/о н/о +20.5 +17.5 83 +25 +25 комфорт 1016.3 1013.1
02 16.08 В 1 н/о н/о +19.4 +16.1 81 +22 +22 комфорт 1016.0 1012.8
03 16.08 В 2 н/о н/о +19.2 +14.6 75 +21 +21 комфорт 1015.6 1012.4
04 16.08 СВ 2 н/о н/о +18.9 +14.8 77 +21 +21 комфорт 1015.5 1012.3
05 16.08 СЗ 2 н/о н/о +19.1 +15.3 79 +21 +21 комфорт 1015.6 1012.4
06 16.08 штиль 0 50 км ясно +18.1 +14.6 80 +18 +18 1016.0 1012.8 +18.1
07 16.08 В 1 н/о н/о +21.6 +16.3 72 +25 +25 комфорт 1016.4 1013.2
08 16.08 В 1 н/о н/о +26.9 +16.7 54 +31 +31 душно 1016.6 1013.5
09 16.08 Ю 2 40 км ясно +29.4 +15.5 43 +32 +41 душно 1016.7 1013.6
10 16.08 ЮВ 2 н/о н/о +32.0 +15.1 36 +34 +34 душно 1016.8 1013.7
11 16.08 Ю 3 н/о н/о +35.3 +15.2 30 +37 +37 очень
душно
1016.2 1013.2
12 16.08 Ю 3 30 км ясно +36.9 +15.4 28 +38 +54 опасность
солнечного
удара
1015.8 1012.8
13 16.08 ЮЗ 3 н/о н/о +38.2 +13.9 24 +39 +39 очень
душно
1015.3 1012.3
14 16.08 ЮЗ 4 н/о н/о +38.3 +14.8 25 +39 +39 очень
душно
1015.0 1012.0
15 16.08 ЮЗ 4 40 км ясно +38.2 +15.3 26 +40 +49 очень
душно
1014.5 1011.5
16 16.08 З 5 н/о н/о +36.7 +15.1 28 +38 +38 очень
душно
1014.2 1011.2
17 16.08 З 5 н/о н/о +35.6 +13.7 27 +36 +36 очень
жарко
1014.1 1011.1
18 16.08 З 4 40 км ясно +33.8 +13.3 29 +35 +35 очень
жарко
1014.3 1011.2 +38.7
19 16.08 З 4 н/о н/о +30.6 +14.2 37 +32 +32 жарко 1014.8 1011.7
20 16.08 ЮЗ 3 н/о н/о +27.6 +14.7 45 +30 +30 жарко 1015.1 1012.0
21 16.08 СЗ 2 25 км ясно +24.6 +16.0 59 +28 +28 душно 1015.9 1012.7
22 16.08 З 1 н/о н/о +23.3 +15.7 62 +28 +28 душно 1015.9 1012.7
23 16.08 В 2 н/о н/о +21.5 +15.8 70 +25 +25 комфорт 1015.9 1012.7
00 17.08 В 1 н/о н/о +20.2 +14.9 72 +24 +24 комфорт 1015.8 1012.6
01 17.08 С 1 н/о н/о +19.4 +14.2 72 +22 +22 комфорт 1015.4 1012.2
02 17.08 С 1 н/о н/о +18.7 +14.9 79 +21 +21 комфорт 1014.9 1011.7
03 17.08 В 2 н/о н/о +18.7 +12.7 68 +20 +20 1014.8 1011.6
04 17.08 штиль 0 н/о н/о +18.1 +13.2 73 +18 +18 1014.5 1011.3
05 17.08 штиль 0 н/о н/о +17.8 +12.5 71 +18 +18 1014.5 1011.3
06 17.08 штиль 0 50 км ясно +17.1 +13.6 80 +17 +17 1014.7 1011.5 +16.9
07 17.08 штиль 0 н/о н/о +21.2 +14.5 66 +24 +24 комфорт 1014.8 1011.6
08 17.08 Ю 1 н/о н/о +26.0 +15.0 51 +29 +29 душно 1014.9 1011.8
09 17.08 Ю 2 н/о н/о +30.0 +15.1 40 +32 +32 жарко 1014.8 1011.7
10 17.08 Ю 2 н/о н/о +33.0 +14.7 33 +35 +35 душно 1014.9 1011.8
11 17.08 ЮЗ 2 н/о н/о +35.2 +14.4 29 +36 +36 очень
жарко
1014.2 1011.2
12 17.08 СВ 2 40 км ясно +36.8 +13.9 26 +38 +57 опасность
солнечного
удара
1013.7 1010.7
13 17.08 ЮЗ 2 н/о н/о +38.7 +13.7 23 +39 +39 душно 1013.0 1010.0
14 17.08 З 3 н/о н/о +40.2 +13.8 21 +40 +40 очень
жарко
1012.3 1009.3
15 17.08 ЮЗ 5 40 км ясно +39.7 +15.8 25 +41 +47 опасность
перегрева
1011.9 1008.9
16 17.08 ЮЗ 6 н/о н/о +38.2 +16.1 27 +40 +40 очень
душно
1011.8 1008.8
17 17.08 З 5 н/о н/о +36.3 +13.1 25 +37 +37 очень
жарко
1011.7 1008.7
18 17.08 З 5 40 км ясно +33.4 +12.8 29 +34 +35 очень
жарко
1011.5 1008.4 +40.2
19 17.08 З 3 н/о н/о +29.5 +15.2 42 +32 +32 душно 1011.9 1008.8
20 17.08 ЮЗ 3 н/о н/о +27.1 +14.1 45 +29 +29 жарко 1012.5 1009.4
21 17.08 ЮЗ 2 40 км ясно +25.8 +14.3 49 +28 +28 жарко 1013.1 1010.0
22 17.08 ЮВ 1 н/о н/о +22.6 +14.2 59 +26 +26 жарко 1013.5 1010.3
23 17.08 В 2 н/о н/о +21.6 +14.1 62 +24 +24 комфорт 1013.5 1010.3
00 18.08 В 1 н/о н/о +20.4 +13.6 65 +24 +24 комфорт 1013.3 1010.1
01 18.08 СВ 2 н/о н/о +19.5 +13.7 69 +22 +22 комфорт 1012.7 1009.5
02 18.08 штиль 0 н/о н/о +19.1 +12.8 67 +20 +20 1012.4 1009.2
03 18.08 Ю 1 н/о н/о +17.8 +13.1 74 +19 +19 1012.2 1009.0
04 18.08 ЮВ 3 н/о н/о +18.2 +13.3 73 +19 +19 1012.1 1008.9
05 18.08 штиль 0 н/о н/о +17.8 +12.4 71 +18 +18 1012.6 1009.4
06 18.08 Ю 3 60 км ясно +19.3 +16.3 83 +21 +21 комфорт 1013.2 1010.0 +17.2
07 18.08 ЮВ 3 н/о н/о +21.6 +16.1 71 +25 +25 комфорт 1013.5 1010.3
08 18.08 Ю 5 н/о н/о +23.0 +19.9 83 +30 +30 очень
душно
1014.3 1011.1
09 18.08 Ю 6 25 км 4/4 300 м
[Cu Sc]
+24.7 +20.2 76 +30 +33 очень
душно
1014.7 1011.6
10 18.08 Ю 5 н/о н/о +27.5 +20.0 64 +34 +34 очень
душно
1015.0 1011.9
11 18.08 Ю 6 н/о н/о +30.1 +20.3 56 +37 +37 очень
душно
1014.9 1011.8
12 18.08 Ю 7 40 км ясно +30.2 +19.8 54 +36 +42 очень
душно
1014.8 1011.7
13 18.08 Ю 5 н/о н/о +31.1 +19.5 50 +37 +37 очень
душно
1014.4 1011.3
14 18.08 ЮЗ 5 н/о н/о +31.8 +18.6 46 +37 +37 очень
душно
1014.1 1011.0
15 18.08 ЮЗ 5 40 км ясно +31.8 +17.7 43 +36 +42 очень
душно
1013.9 1010.8
16 18.08 ЮЗ 5 н/о н/о +32.4 +17.8 42 +37 +37 очень
душно
1013.5 1010.4
17 18.08 ЮЗ 6 н/о н/о +30.5 +17.9 47 +35 +35 очень
душно
1013.6 1010.5
18 18.08 ЮЗ 6 н/о н/о +28.4 +18.2 54 +33 +33 очень
душно
1013.6 1010.5 +32.6
19 18.08 ЮЗ 4 н/о н/о +26.0 +17.6 60 +30 +30 душно 1013.7 1010.6
20 18.08 Ю 2 н/о н/о +23.4 +18.1 72 +29 +29 душно 1014.3 1011.1
21 18.08 Ю 2 20 км ясно +21.7 +18.3 81 +26 +26 душно 1015.1 1011.9
22 18.08 Ю 2 н/о н/о +21.4 +18.4 83 +26 +26 душно 1015.3 1012.1
23 18.08 ЮВ 2 н/о н/о +20.5 +17.9 85 +25 +25 комфорт 1015.2 1012.0
00 19.08 Ю 2 н/о н/о +19.7 +17.8 89 +23 +23 комфорт 1015.3 1012.1
01 19.08 штиль 0 н/о н/о +18.5 +16.5 88 +19 +19 1015.2 1012.0
02 19.08 ЮВ 1 н/о н/о +18.2 +16.5 90 +20 +20 1014.7 1011.5
03 19.08 ЮВ 1 н/о н/о +18.0 +16.7 92 +19 +19 1014.5 1011.3
04 19.08 Ю 2 н/о н/о +17.9 +17.1 95 +19 +19 1014.5 1011.3
05 19.08 ЮВ 2 н/о н/о +19.3 +19.0 98 +22 +22 комфорт 1014.8 1011.6
06 19.08 В 1 1200 м туман ?/? +19.8 +19.6 99 +24 +24 комфорт 1015.2 1012.0 +17.2
07 19.08 ЮВ 2 н/о н/о +21.1 +20.6 97 +26 +26 душно 1015.3 1012.1
08 19.08 ЮВ 2 н/о н/о +23.5 +20.9 85 +29 +29 душно 1015.6 1012.4
09 19.08 ЮВ 3 н/о н/о +26.5 +21.2 73 +34 +34 очень
душно
1015.5 1012.4
10 19.08 Ю 4 н/о н/о +29.2 +20.6 60 +36 +36 очень
душно
1015.3 1012.2
11 19.08 Ю 4 н/о н/о +31.3 +20.6 53 +38 +38 очень
душно
1015.2 1012.1

 

Местоположение метеостанции Херес-де-ла-Фронтера (Испания): широта 36.75 долгота -6.07 высота над уровнем моря 28 м.

В архиве по умолчанию представлена погода в Херес-де-ла-Фронтере за последнюю неделю. Архивные данные за месяц целиком и за предыдущие месяцы, начиная с января 2011 года, Вы можете получить, выбрав интересующий диапазон дат из раскрывающегося списка и нажав кнопку "Ввод!".


*Определитесь, кто Вы:
робот инопланетянин человек

Внимание! Время в таблицах - всемирное. Для получения местного времени необходимо прибавить поправку, которая равна 1 ч.

Смотрите также архив погоды в соседних городах и на ближайших метеорологических станциях:

Погода в Кадисской бухте (Испания) (33 км)
Погода в Сан-Фернандо (Испания) (34 км)
Погода в Вехер-де-ла-Фронтера (Испания) (56 км)
Погода в Морон-де-ла-Фронтере (Испания) (60 км)
Погода в Грасалеме (Испания) (62 км)
Погода в Эль-Ареносильо (Испания) (71 км)
Погода в Севилье (Испания) (76 км)
Погода в Эстепоне (Испания) (90 км)
Погода в Тарифе (Испания) (91 км)
Погода Гибралтаре (Гибралтар) (93 км)

Пояснения к столбцам:

Ветер - указаны скорость ветра в м/с - средняя за 10 мин, порывы в срок и между сроками (в фигурных скобках) и направление, откуда дует ветер: С - северный, СВ - северо-восточный, В - восточный, ЮВ - юго-восточный, Ю - южный, ЮЗ - юго-западный, З - западный, СЗ - северо-западный.
Видимость - горизонтальная дальность видимости в метрах или километрах. При видимости от 1 до 10 км при отсутствии осадков обычно наблюдается дымка, при ухудшении видимости до 1 км и менее - туман. В сухую погоду видимость может ухудшаться дымом, пылью или мглою.
Явления - указаны атмосферные явления, наблюдавшиеся в срок или в последний час перед сроком; фигурными скобками обозначены явления, наблюдавшиеся между сроками (за 1-3 часа до срока); квадратными скобками обозначены град или гололедные отложения с указанием их диаметра в мм.
Облачность - указаны через наклонную черту общая и нижняя облачность в баллах и высота нижней границы облаков в метрах; квадратными скобками обозначены формы облаков: Ci - перистые, Cs - перисто-слоистые, Cc - перисто-кучевые, Ac - высококучевые, As - высокослоистые, Sc - слоисто-кучевые, Ns - слоисто-дождевые, Cu - кучевые, Cb - кучево-дождевые. Подробнее классификацию облаков см. в Атласе облаков (PDF).
T - Температура воздуха - температура, измеренная на высоте 2 м над землей.
Td - Температура точки росы - температура, при понижении до которой содержащийся в воздухе водяной пар достигнет насыщения.
f - Относительная влажность воздуха - влажноcть воздуха, измеренная на высоте 2 м над землей.
Te - Эффективная температура - температура, которую ощущает одетый по сезону человек в тени. Характеристика душности погоды. При расчете учитывается влияние влажности воздуха и скорости ветра на теплоощущения человека.
Tes - Эффективная температура на солнце - температура, которую ощущает человек, с поправкой на солнечный нагрев. Характеристика знойности погоды. Зависит от высоты солнца над горизонтом, облачности и скорости ветра. Ночью, в пасмурную погоду, а также при ветре 12 м/с и более поправка равна нулю.
P - Атмосферное давление - приведенное к уровню моря атмосферное давление.
Po - Атмосферное давление - измеренное на уровне метеостанции атмосферное давление.
Tmin - Минимальная температура - минимум температуры воздуха на высоте 2 м над землей.
Tmax - Максимальная температура - максимум температуры воздуха на высоте 2 м над землей.
R - Количество осадков - Количество выпавших осадков за период времени, мм. При наведении курсора мыши на число - период времени, за который выпало указанное количество осадков.
R24 - Количество осадков - Количество выпавших осадков за 24 часа, мм.
S - Снежный покров - Высота снежного покрова, см. При наведении курсора мыши на число - состояние снежного покрова и степень покрытия местности в баллах.